User: anonymous   Login
Location: Brno
(49.2000°N, 16.6330°E)
Time: 19:05:26
(UTC+01:00)
Language:

NOSS 3-4 (A) - Orbit

View from above orbital plane
View from above orbital plane
View from above satellite
View from above satellite

Ground track
Ground track

The orbit data is extracted from the following two-line orbital elements,

1 31701U 07027A   16340.76537750 0.00000000  00000-0  00000-0 0    05
2 31701  63.4039 216.4568 0172000  25.0355 334.9645 13.40719328    03
Epoch (UTC): 05 December 2016 18:22:08
Eccentricity: 0.0172000
inclination: 63.4039°
perigee height: 978 km
apogee height: 1235 km
right ascension of ascending node: 216.4568°
argument of perigee: 25.0355°
revolutions per day: 13.40719328
mean anomaly at epoch: 334.9645°
orbit number at epoch: 0

The dashed part of the orbit path shows where the satellite is in the earth's shadow,  

DLR